Regional Weather Roundup
Issued by NWS

Home | Current Version | Previous Version | Text Only | Print | Product List | Glossary On
Versions: 1 2 3 4 5 6 7 8 9 10 11 12 13 14 15 16 17 18 19 20 21 22 23 24 25 26 27 28 29 30 31 32 33 34 35 36 37 38 39 40 41 42 43 44 45 46 47 48 49 50
000
ASUS43 KTOP 181459
RWRKS

WEATHER ROUNDUP FOR KANSAS
NATIONAL WEATHER SERVICE GOODLAND KS
900 AM CST WED JAN 18 2017

NOTE:  "FAIR" INDICATES FEW OR NO CLOUDS BELOW 12,000 FEET WITH NO
SIGNIFICANT WEATHER AND/OR OBSTRUCTIONS TO VISIBILITY.

KSZ001>006-013>018-027>032-041>047-181600-
NORTHWEST KANSAS

CITY           SKY/WX    TMP DP  RH WIND       PRES   REMARKS
GOODLAND       CLOUDY    28  24  85 W6        29.93R
HILL CITY      CLOUDY    34  32  92 SW7       29.99F
RUSSELL        CLOUDY    35  31  85 S12       30.02S WCI  27
$$

KSZ061>065-074>080-084>089-181600-
SOUTHWEST KANSAS

CITY           SKY/WX    TMP DP  RH WIND       PRES   REMARKS
DODGE CITY     PTSUNNY   39  35  86 S15       30.04R WCI  31
ELKHART          N/A     38  31  76 S5          N/A
GARDEN CITY    CLOUDY    34  32  92 SW9       29.99S
GREAT BEND     CLOUDY    39  33  79 S12       30.06R WCI  32
LIBERAL        SUNNY     37  34  87 SE6       30.03S
$$

KSZ066>073-081>083-090>101-181600-
SOUTHEAST KANSAS

CITY           SKY/WX    TMP DP  RH WIND       PRES   REMARKS
CHANUTE        FOG       33  32  96 SE7       30.17R VSB 3/4
COFFEYVILLE    CLOUDY    38  38 100 CALM      30.18R
HUTCHINSON     CLOUDY    35  31  85 SE5       30.09S
MEDICINE LODGE   N/A     37  33  85 SE3       30.10S
NEWTON         CLOUDY    34  31  88 SE8       30.11R
PARSONS        CLOUDY    36  35  96 SE3       30.19R FOG
WICHITA INTL   CLOUDY    36  34  92 S6        30.11S
WICHITA JABRA  CLOUDY    35  33  92 S6        30.11S
WICHITA MCCONL CLOUDY    37  33  87 S7        30.11S
WINFIELD       CLOUDY    39  36  89 SE5       30.15R
$$

KSZ007>012-019>026-033>040-048>060-102>105-181600-
NORTHEAST KANSAS

CITY           SKY/WX    TMP DP  RH WIND       PRES   REMARKS
CONCORDIA      CLOUDY    33  30  88 SE3       30.04S
EMPORIA        CLOUDY    31  31 100 S9        30.12S FOG
LAWRENCE       PTSUNNY   31  31 100 E7        30.16R FOG
MANHATTAN      SUNNY     29  26  89 CALM      30.10R
OLATHE IND     FOG       30  30 100 S12       30.16R VSB 1/4 WCI  20
OLATHE EXE     FOG       29  29 100 S10       30.16R VSB 1/4 WCI  20
SALINA         SUNNY     30  28  92 S8        30.08R
TOPEKA BILLARD SUNNY     32  29  88 E5        30.13R
TOPEKA FORBES  SUNNY     33  31  92 S9        30.13R
$$




USA.gov is the U.S. government's official web portal to all federal, state and local government web resources and services.